This is the latest recevied weather packets stored in our database for station/object KJ5HMU-13. If no packets are shown the sender has not sent any weather packets the latest 1 day(s).
| Time | Temp. | Humidity | Pressure | Rain* | Wind** | Luminosity | Snow |
|---|---|---|---|---|---|---|---|
| 1777999204 | 3.89° C | 92% | 1017.8 hPa | 0 mm | 0.89 m/s, 25° | 100 W/m² | - |
| 1777998902 | 3.89° C | 90% | 1017.9 hPa | 0 mm | 1.79 m/s, 7° | 89 W/m² | - |
| 1777998603 | 4.44° C | 91% | 1017.8 hPa | 0 mm | 1.34 m/s, 16° | 90 W/m² | - |
| 1777998297 | 5° C | 90% | 1017.8 hPa | 0 mm | 0.89 m/s, 11° | 76 W/m² | - |
| 1777997993 | 5.56° C | 91% | 1017.8 hPa | 0 mm | 0 m/s | 44 W/m² | - |
| 1777997690 | 5.56° C | 92% | 1017.9 hPa | 0 mm | 0 m/s | 28 W/m² | - |
| 1777997388 | 5.56° C | 92% | 1017.8 hPa | 0 mm | 0 m/s | 46 W/m² | - |
| 1777997086 | 5.56° C | 92% | 1017.9 hPa | 0 mm | 0 m/s | 40 W/m² | - |
| 1777996782 | 5.56° C | 92% | 1017.5 hPa | 0 mm | 0 m/s | 45 W/m² | - |
| 1777996479 | 5.56° C | 92% | 1017.8 hPa | 0 mm | 0 m/s | 89 W/m² | - |
| 1777996175 | 5.56° C | 93% | 1017.8 hPa | 0 mm | 0 m/s | 87 W/m² | - |
| 1777995872 | 5.56° C | 93% | 1017.9 hPa | 0 mm | 0 m/s | 73 W/m² | - |
| 1777995567 | 5.56° C | 91% | 1017.9 hPa | 0 mm | 0 m/s | 80 W/m² | - |
| 1777995265 | 5.56° C | 94% | 1018.1 hPa | 0 mm | 0 m/s | 86 W/m² | - |
| 1777994962 | 5° C | 95% | 1018.3 hPa | 0 mm | 0 m/s | 82 W/m² | - |
| 1777994659 | 5° C | 95% | 1018.2 hPa | 0 mm | 0 m/s | 81 W/m² | - |
| 1777994359 | 5° C | 96% | 1018.1 hPa | 0 mm | 0 m/s | 88 W/m² | - |
| 1777994055 | 4.44° C | 96% | 1018.3 hPa | 0 mm | 0 m/s | 85 W/m² | - |
| 1777993753 | 4.44° C | 97% | 1018.2 hPa | 0 mm | 0 m/s | 98 W/m² | - |
| 1777993450 | 4.44° C | 97% | 1018.2 hPa | 0 mm | 0 m/s | 72 W/m² | - |
| 1777993144 | 4.44° C | 98% | 1017.9 hPa | 0 mm | 0 m/s | 68 W/m² | - |
| 1777992843 | 3.89° C | 98% | 1018.2 hPa | 0 mm | 0 m/s | 70 W/m² | - |
| 1777992540 | 3.89° C | 98% | 1018.3 hPa | 0 mm | 0 m/s | 67 W/m² | - |
| 1777992238 | 3.89° C | 98% | 1018.6 hPa | 0 mm | 0 m/s | 52 W/m² | - |
| 1777991935 | 3.33° C | 98% | 1018.5 hPa | 0 mm | 0 m/s | 48 W/m² | - |
* Rain latest hour (hover to see other rain measurements)
** Current wind speed in m/s (hover to see current wind gust speed)